Regional Weather Roundup
Issued by NWS Jackson, KY

Home | Current Version | Previous Version | Text Only | Print | Product List | Glossary Off
Versions: 1 2 3 4 5 6 7 8 9 10 11 12 13 14 15 16 17 18 19 20 21 22 23 24 25 26 27

000
ASUS43 KJKL 270910
RWRJKL

EAST KENTUCKY HOURLY WEATHER ROUNDUP
NATIONAL WEATHER SERVICE JACKSON KY
500 AM EDT SAT MAY 27 2017

NOTE: "FAIR" INDICATES FEW OR NO CLOUDS BELOW 12,000 FEET WITH
NO SIGNIFICANT WEATHER AND/OR OBSTRUCTIONS TO VISIBILITY.

* THESE REPORTS ARE NOT UNDER NWS QUALITY CONTROL AND MAY NOT
  REPORT WEATHER SUCH AS PRECIPITATION AND FOG.

KYZ079-080-083-085-087-088-110-112-115-119-120-271000
...EASTERN KENTUCKY...

CITY           SKY/WX    TMP DP  RH WIND       PRES   REMARKS
JACKSON        CLOUDY    69  59  70 VRB3      29.92S
LONDON         CLOUDY    72  59  63 SW8       29.93S
SOMERSET*      CLOUDY    68  59  73 S3        29.92S
MONTICELLO*    CLOUDY    72  62  71 W12       29.93S
WILLIAMSBURG*  CLOUDY    73  61  64 SW7       29.93S
MIDDLESBORO*   CLOUDY    64  62  96 CALM      29.97S
HARLAN APT*    CLOUDY    61  59  94 CALM      29.97R
PIKE CO APT*   CLOUDY    69  60  70 S5        29.92S
BIG SANDY APT* CLOUDY    69  60  71 SW6       29.90F
MOREHEAD APT*  CLOUDY    70  61  73 S8        29.89S
ASHLAND*       CLOUDY    66  61  82 E3        29.83F
$$

KYZ035-036-041-042-044-050-067-078-099-271000
...CENTRAL KENTUCKY...

CITY           SKY/WX    TMP DP  RH WIND       PRES   REMARKS
MT STERLING*   LGT RAIN  68  63  83 SW7       29.89S
FLEMING/MASON* CLOUDY    69  62  78 SW9       29.87S
DANVILLE*      CLOUDY    68  61  77 SW5       29.90S
LEXINGTON      CLOUDY    70  61  73 SW5       29.88R
FRANKFORT      CLOUDY    71  61  70 SW6       29.86R
LOUISVILLE     CLOUDY    74  66  76 W6        29.85S
LEBANON*         N/A     72  61  68 S8        29.88S
GLASGOW*       CLOUDY    71  61  69 SW3       29.89S
BOWLING GREEN  CLOUDY    75  63  66 SW6       29.88S
$$

KYZ091>093-OHZ055-061-077-WVZ005-015-034-035-042-271000
...SOUTHERN OHIO/WEST VIRGINIA...

CITY           SKY/WX    TMP DP  RH WIND       PRES   REMARKS
COVINGTON      CLOUDY    71  64  78 SW5       29.84R
COLUMBUS       CLOUDY    64  64 100 E3        29.83S
DAYTON         CLOUDY    65  63  93 SW3       29.83S
WILMINGTON     CLOUDY    66  64  93 SW6       29.82S
HUNTINGTON     CLOUDY    66  58  75 S3        29.86F
CHARLESTON     CLOUDY    62  58  86 CALM      29.88F
PINEVILLE*     CLOUDY    57  56  96 MISG      30.01S
BECKLEY        CLOUDY    62  54  74 SW6       29.98S
BLUEFIELD      CLEAR     62  55  77 W10       30.00F
LOGAN CO APT*  CLOUDY    68  57  68 CALM      29.93S
$$

VAZ002-007-008-TNZ017-027-036-066-071-271000
...SOUTHWEST VIRGINIA/EAST TENNESSEE...

CITY           SKY/WX    TMP DP  RH WIND       PRES   REMARKS
WISE*          CLOUDY    63  55  77 CALM      30.02S
JONESVILLE*    CLOUDY    59  59 100 CALM      30.00S
ABINGDON*      PTCLDY    60  58  95 CALM      30.01S
BRISTOL        CLOUDY    61  58  90 CALM      29.98F
MORRISTOWN*    CLOUDY    64  63  94 CALM      29.97S
SEVIERVILLE*   CLOUDY    63  59  88 CALM      29.96F
LAFOLLETTE*    PTSUNNY   61  61 100 CALM      29.99S
OAK RIDGE      PTCLDY    64  61  90 CALM      29.98S
CROSSVILLE     CLOUDY    65  58  78 S3        29.99S
NASHVILLE      MOCLDY    73  61  65 S7        29.91F
$$

...KEY TO REMARKS...
VSB - VISIBILITY IN MILES
WCI - WIND CHILL INDEX
HX  - HEAT INDEX

$$




USA.gov is the U.S. government's official web portal to all federal, state and local government web resources and services.